Location: ČR
(50.0000°N, 15.0000°E)
Time: 16:32:19
(UTC+01:00)

Courier 1B - Pass Details

Date: 17 February 2026
Orbit: 962 x 1208 km, 28.3° (Epoch: 16 March)

Event Time Altitude Azimuth Distance (km) Brightness Sun altitude
Rises 20:49:51 0° 222° (SW) 3,972 10.9 -33.5°
Enters shadow 20:53:43 - 201° (SSW) 3,188 10.1 -34.1°
Reaches altitude 10° 20:54:38 10° 195° (SSW) 3,065 - -34.2°
Maximum altitude 20:57:33 13° 172° (S) 2,900 - -34.6°
Drops below altitude 10° 21:00:30 10° 149° (SSE) 3,112 - -35.0°
Sets 21:05:27 0° 123° (ESE) 4,100 - -35.8°
